Franny Norton

Franny Norton

Statistiques 2026

  • Courses courues : -
  • Nb de victoires : -
  • Nb de places : -
  • Écart gagnant : 31
  • Réussite à la gagne : -
  • Réussite à la place : -
Musique : (19) 11p 11p 6p 5p 8p 11p 5p 10p 3p 3p 10p 7p 11p 4p 4p 6p 8p 5p
DateRangCatégorieAlloc.Dist.HippodromeChevalPoidsSpé.
02/05/14 10 Galop 3 325€ Gb-Lingfield Zammy 56,5 Plat
30/04/14 6 Galop 4 732€ Gb-Pontefract Mambo Rhythm 57 Plat
29/04/14 3 Galop 2 760€ Gb-Wolverhampton Sweet Cherry 54 Plat
29/04/14 2 Galop 2 760€ Gb-Wolverhampton Company Secretary 58 Plat
26/04/14 11 Galop 30 365€ Gb-Ripon Hunting Ground 54 Plat
19/04/14 9 Galop 15 182€ Gb-Kempton Life And Times 54,5 Plat
16/04/14 7 Galop 5 917€ Gb-Beverley Emaad 55,5 Plat
16/04/14 5 Galop 3 943€ Gb-Beverley Bahamian Art 54,5 Plat
07/09/13 6 Galop 118 335€ Gb-Ascot Special Meaning 56,5 Plat
05/09/13 5 Galop 3 156€ Gb-Kempton Busatto 59,5 Plat
05/09/13 3 Galop 3 156€ Gb-Kempton Dawn Calling 59,5 Plat
03/09/13 5 Galop 2 367€ Gb-Musselburgh Dutch Gal 59 Plat
31/08/13 5 Galop 25 589€ Gb-Chester Star Lahib 58 Plat
30/08/13 9 Galop 9 467€ Gb-Chester Pitchoun 59,5 Plat
30/08/13 8 Galop 7 889€ Gb-Chester Evermore 57 Plat
30/08/13 1 Galop 7 889€ Gb-Chester Bow Creek 57 Plat
28/08/13 5 Galop 3 550€ Gb-Carlisle Damaah 57 Plat
26/08/13 9 Galop 15 368€ Gb-Ripon Desert Revolution 53 Plat
25/08/13 10 Galop 3 943€ Gb-Goodwood Mariners Moon 57 Plat
24/08/13 11 Galop 31 556€ Gb-Newmarket Sadler's Risk 61,5 Plat
23/08/13 5 Galop 37 957€ Gb-York Scatter Dice 58,5 Plat
23/08/13 4 Galop 6 310€ Gb-Hamilton Bonnie Charlie 58 Plat
22/08/13 13 Galop 23 667€ Gb-York Lady Of The House 55 Plat
22/08/13 4 Galop 34 579€ Gb-York Star Lahib 59 Plat
22/08/13 14 Galop 188 742€ Gb-York Morning Post 56 Plat
21/08/13 5 Galop 23 667€ Gb-York Eagle Rock 53 Plat
16/08/13 3 Galop 11 834€ Gb-Nottingham Penny Rose 60 Plat
14/08/13 1 Galop 29 392€ Gb-Salisbury Mango Diva 53 Plat
14/08/13 6 Galop 8 678€ Gb-Salisbury Mawzoona 52 Plat
14/08/13 8 Galop 5 128€ Gb-Salisbury Illegal Action 59,5 Plat
12/08/13 8 Galop 3 156€ Gb-Thirsk Mujaadel 63,5 Plat
09/08/13 2 Galop 3 550€ Gb-Haydock Gold Club 59,5 Plat
06/08/13 4 Galop 9 220€ Gb-Ripon Waseem Faris 53 Plat
05/08/13 2 Galop 3 943€ Gb-Ripon Certification 58,5 Plat
04/08/13 2 Galop 25 589€ Gb-Chester Intransigent 57 Plat
03/08/13 10 Galop 31 556€ Gb-Newmarket Dry Your Eyes 55 Plat
03/08/13 13 Galop 5 521€ Gb-Newmarket Tempelfeuer 57 Plat
02/08/13 4 Galop 11 387€ Gb-Goodwood Ambleside 52 Plat
02/08/13 2 Galop 41 495€ Gb-Goodwood Winning Express 55,5 Plat
02/08/13 19 Galop 15 778€ Gb-Goodwood Double Czech 52 Plat
02/08/13 7 Galop 98 689€ Gb-Goodwood Windhoek 57,5 Plat
01/08/13 7 Galop 18 978€ Gb-Goodwood Firmdecisions 51,5 Plat
01/08/13 3 Galop 41 495€ Gb-Goodwood Alta Lilea 53,6 Plat
01/08/13 4 Galop 69 158€ Gb-Goodwood Number Theory 60,5 Plat
01/08/13 1 Galop 37 957€ Gb-Goodwood Broughton 51 Plat
31/07/13 6 Galop 13 285€ Gb-Goodwood A Star In My Eye 52 Plat
31/07/13 13 Galop 30 365€ Gb-Goodwood Good Morning Star 60,5 Plat
30/07/13 14 Galop 11 834€ Gb-Goodwood Hamoody 57,5 Plat
30/07/13 13 Galop 11 834€ Gb-Goodwood Copperwood 58 Plat
30/07/13 8 Galop 56 936€ Gb-Goodwood Sir Graham Wade 58,5 Plat